Location: Camoruquito
(9.9001°N, 67.3564°W)
Time: 01:39:16
(UTC+00:00)

CZ-3 R/B - Visible Passes

Search period start: 19 July 2024 00:00
Search period end: 29 July 2024 00:00
Orbit: 496 x 10070 km, 28.3° (Epoch: 18 July)

Date Brightness Start Highest point End Pass type
(mag) Time Alt. Az. Time Alt. Az. Time Alt. Az.
19 Jul 6.2 02:49:14 10° WNW 04:00:20 51° SW 04:03:56 51° SW visible
19 Jul 5.2 08:22:55 11° SSW 08:22:55 11° SSW 08:27:24 10° S visible
19 Jul 6.2 23:16:40 10° WNW 23:55:27 84° NE 00:56:48 32° ESE visible
20 Jul 5.9 03:16:55 10° WNW 05:15:54 - SE 04:25:38 44° SW visible
20 Jul 6.2 23:40:38 10° WNW 00:23:11 89° SW 01:18:33 37° SE visible
21 Jul 5.8 03:46:02 10° W 05:37:44 - SSE 04:47:23 37° SW visible
22 Jul 6.2 00:04:46 10° WNW 00:51:05 81° SW 01:40:21 42° SE visible
22 Jul 5.7 04:17:13 10° W 05:59:34 - SSE 05:09:12 30° SW visible
23 Jul 6.2 00:29:07 10° WNW 01:19:07 74° SW 02:02:11 46° SSE visible
23 Jul 5.6 04:51:18 10° W 06:21:23 12° SSE 06:22:41 10° SSE visible
24 Jul 6.2 00:53:47 10° WNW 01:47:23 67° SW 02:24:05 48° SSE visible
24 Jul 5.5 05:29:11 10° WSW 06:43:12 14° SSE 06:46:17 10° SSE visible
24 Jul 5.8 21:30:20 10° NW 21:52:19 69° NNE 23:11:59 10° ESE visible
25 Jul 6.2 01:18:52 10° WNW 02:15:54 60° SW 02:46:01 49° S visible
25 Jul 5.4 06:10:21 10° WSW 07:05:02 16° S 07:09:59 10° SSE visible
25 Jul 5.8 21:53:45 10° WNW 22:18:13 76° NNE 23:39:11 11° ESE visible
26 Jul 6.2 01:44:30 10° WNW 02:44:47 53° SW 03:07:59 47° S visible
26 Jul 5.3 07:26:50 16° S 07:26:50 16° S 07:33:51 10° SSE visible
26 Jul 5.9 22:17:14 10° WNW 22:44:21 83° NNE 00:01:10 16° ESE visible
27 Jul 6.3 02:10:53 10° W 03:14:12 47° SW 03:30:00 44° SSW visible
27 Jul 5.2 07:48:39 16° SSW 07:48:39 16° SSW 07:57:57 10° SSE visible
27 Jul 6.0 22:40:49 10° WNW 23:10:48 89° SW 00:23:11 21° SE visible
28 Jul 6.4 02:38:19 10° W 03:44:18 41° SW 03:52:02 40° SSW visible
28 Jul 5.0 08:10:28 14° SSW 08:14:26 15° S 08:22:18 10° SSE visible
